Weather reports worldwide

Advertisment
Dorans, France (7296): temperature & dewpoint: 20.09.2018 05:00:00 - 26.09.2018 05:00:00 (CEST)Dorans, France (7296): temperature 5cm: 20.09.2018 05:00:00 - 26.09.2018 05:00:00 (CEST)Dorans, France (7296): temperature -20cm & temperature -100cm: 20.09.2018 05:00:00 - 26.09.2018 05:00:00 (CEST)Dorans, France (7296): wind speed & gusts: 20.09.2018 05:00:00 - 26.09.2018 05:00:00 (CEST)Dorans, France (7296): wind direction: 20.09.2018 05:00:00 - 26.09.2018 05:00:00 (CEST)Dorans, France (7296): reduced air pressure: 20.09.2018 05:00:00 - 26.09.2018 05:00:00 (CEST)Dorans, France (7296): visibility: 20.09.2018 05:00:00 - 26.09.2018 05:00:00 (CEST)Dorans, France (7296): precipitation: 20.09.2018 05:00:00 - 26.09.2018 05:00:00 (CEST)
Date & Time tt [°C] td [°C] tt 5cm [°C] tt -20cm [°C] tt -100cm [°C] ff [km/h] ff [kn] fx [km/h] fx [kn] dd ppp [hPa] vv [km] rr [mm]
26.09.2018 05:00:00 6,8 0,7 4,9 15,5 17,9 12 6 25 14 E 1033,7 20 0,0
26.09.2018 04:00:00 6,9 0,8 4,8 15,7 17,9 11 6 28 15 E 1034,2 20 0,0
26.09.2018 03:00:00 7,1 1,0 4,9 15,8 17,9 11 6 25 13 E 1034,6 20 0,0
26.09.2018 02:00:00 7,6 1,0 5,9 16,0 17,9 12 6 35 19 E 1034,9 20 0,0
26.09.2018 01:00:00 8,2 0,9 6,4 16,1 17,9 19 11 32 17 E 1034,9 20 0,0
26.09.2018 00:00:00 8,7 0,9 6,7 16,2 17,9 12 6 32 18 E 1034,8 20 0,0
25.09.2018 23:00:00 9,8 0,9 8,1 16,4 17,9 18 10 35 19 E 1034,8 20 0,0
25.09.2018 22:00:00 10,6 1,1 8,8 16,5 17,9 15 8 36 19 E 1034,2 20 0,0
25.09.2018 21:00:00 11,7 1,3 9,9 16,6 17,9 19 11 39 21 E 1033,8 20 0,0
25.09.2018 20:00:00 12,5 1,2 10,8 16,6 17,9 18 10 39 21 E 1033,3 20 0,0
25.09.2018 19:00:00 13,9 1,5 13,2 16,6 18,0 25 14 43 23 ENE 1033,0 20 0,0
25.09.2018 18:00:00 15,1 1,9 16,9 16,5 18,0 28 15 53 29 ENE 1032,8 20 0,0
25.09.2018 17:00:00 15,8 2,9 19,7 16,4 18,0 29 16 47 25 ENE 1032,8 20 0,0
25.09.2018 16:00:00 15,8 3,6 21,0 16,2 18,0 28 15 53 28 NE 1033,2 20 0,0
25.09.2018 15:00:00 15,5 3,9 21,9 16,0 18,0 23 12 51 28 E 1033,6 20 0,0
25.09.2018 14:00:00 14,4 4,4 20,7 15,7 18,0 23 12 54 29 ENE 1034,3 20 0,0
25.09.2018 13:00:00 13,4 4,5 19,6 15,5 18,0 21 11 49 27 E 1034,7 20 0,0
25.09.2018 12:00:00 12,2 3,9 16,3 15,5 18,0 21 12 44 24 E 1035,0 20 0,0
25.09.2018 11:00:00 10,9 4,6 11,9 15,5 18,0 21 11 46 25 ENE 1035,4 20 0,0
25.09.2018 10:00:00 9,9 4,1 9,4 15,5 18,0 19 10 41 22 E 1035,4 20 0,0
25.09.2018 09:00:00 8,4 4,4 5,6 15,7 18,0 15 8 31 17 E 1035,5 20 0,0
25.09.2018 08:00:00 6,4 3,9 4,7 15,8 18,0 11 6 26 14 E 1035,5 20 0,0
25.09.2018 07:00:00 6,4 3,4 4,8 15,9 18,0 10 6 34 18 E 1034,9 20 0,0
25.09.2018 06:00:00 7,0 3,4 5,3 16,1 18,0 13 7 31 17 E 1034,8 20 0,0
25.09.2018 05:00:00 7,7 3,2 6,4 16,2 18,0 16 9 32 17 E 1034,8 20 0,0
25.09.2018 04:00:00 8,2 3,2 6,6 16,3 18,0 19 10 40 22 ENE 1034,9 20 0,0
25.09.2018 03:00:00 8,0 3,3 5,5 16,5 18,0 19 10 32 18 ENE 1035,0 20 0,0
25.09.2018 02:00:00 7,3 3,2 4,8 16,6 18,0 13 7 24 13 ENE 1035,1 20 0,0
25.09.2018 01:00:00 7,0 2,5 4,4 16,8 18,0 10 6 20 11 ENE 1035,5 20 0,0
25.09.2018 00:00:00 7,1 2,4 4,6 17,0 18,0 11 6 20 11 ENE 1035,4 20 0,0
24.09.2018 23:00:00 7,7 2,2 5,3 17,2 18,1 14 8 20 11 NE 1035,1 20 0,0
24.09.2018 22:00:00 8,3 2,1 5,2 17,4 18,1 14 8 21 11 NE 1034,8 20 0,0
24.09.2018 21:00:00 9,2 2,1 6,8 17,5 18,0 11 6 22 12 NE 1034,5 20 0,0
24.09.2018 20:00:00 10,5 2,1 8,9 17,6 18,1 16 8 28 15 NE 1033,8 20 0,0
24.09.2018 19:00:00 12,7 1,1 12,3 17,6 18,1 23 12 40 22 ENE 1033,0 20 0,0
24.09.2018 18:00:00 13,8 0,8 16,4 17,6 18,1 24 13 40 22 ENE 1032,6 20 0,0
24.09.2018 17:00:00 14,2 0,8 18,1 17,4 18,1 23 12 41 22 ENE 1032,5 20 0,0
24.09.2018 16:00:00 14,7 1,9 20,5 17,3 18,1 27 15 43 23 NE 1032,4 20 0,0
24.09.2018 15:00:00 14,3 0,9 21,2 17,2 18,1 25 13 47 25 ENE 1032,5 20 0,0
24.09.2018 14:00:00 14,4 3,8 17,8 17,2 18,1 19 10 47 25 ENE 1032,5 20 0,0
24.09.2018 13:00:00 13,4 4,5 12,0 17,1 18,1 26 14 45 24 NE 1033,2 20 0,0
24.09.2018 12:00:00 11,5 4,0 12,5 17,1 18,1 22 12 46 25 ENE 1033,6 20 0,0
24.09.2018 11:00:00 10,8 4,9 12,3 17,2 18,1 24 13 40 22 ENE 1033,5 20 0,0
24.09.2018 10:00:00 10,6 5,6 11,6 17,3 18,1 22 12 37 20 E 1033,2 20 0,0
24.09.2018 09:00:00 9,6 6,1 8,8 17,3 18,1 10 6 23 12 E 1032,2 20 0,0
24.09.2018 08:00:00 8,7 6,0 7,4 17,5 18,1 13 7 26 14 E 1031,3 20 0,0
24.09.2018 07:00:00 8,3 5,2 7,4 17,6 18,1 11 6 31 17 E 1030,5 20 0,0
24.09.2018 06:00:00 9,4 7,2 8,2 17,8 18,1 9 5 25 13 E 1029,8 20 0,0
24.09.2018 05:00:00 9,2 7,3 8,0 17,9 18,1 6 3 16 9 N 1028,4 20 0,0
24.09.2018 04:00:00 10,0 7,6 9,4 18,0 18,1 10 6 17 9 NW 1027,5 20 0,0
24.09.2018 03:00:00 10,0 7,6 9,5 18,2 18,1 6 4 26 14 WNW 1027,1 20 0,0
24.09.2018 02:00:00 10,4 8,2 10,0 18,3 18,1 13 7 29 15 W 1026,3 20 0,0
24.09.2018 01:00:00 11,0 9,1 10,5 18,4 18,1 11 6 23 13 W 1025,4 20 0,0
24.09.2018 00:00:00 11,6 10,2 11,1 18,6 18,1 12 6 33 18 W 1023,7 20 0,0
23.09.2018 23:00:00 12,2 10,4 11,8 18,7 18,2 15 8 34 19 W 1022,6 20 0,0
23.09.2018 22:00:00 12,8 11,0 12,0 18,8 18,1 16 8 61 33 W 1020,1 20 0,6
23.09.2018 21:00:00 13,8 12,4 13,1 18,9 18,1 26 14 78 42 NW 1017,0 7 9,3
23.09.2018 20:00:00 22,5 15,3 20,9 18,8 18,2 35 19 72 39 WSW 1012,1 20 0,0
23.09.2018 19:00:00 23,1 15,2 22,4 18,8 18,2 29 15 61 33 SW 1011,3 20 0,0
23.09.2018 18:00:00 23,2 15,0 23,2 18,7 18,2 30 16 64 35 SW 1012,0 20 0,0
23.09.2018 17:00:00 23,0 14,6 23,2 18,6 18,2 34 18 69 37 WSW 1013,2 20 0,0
23.09.2018 16:00:00 22,6 15,4 22,7 18,4 18,1 26 14 61 33 SW 1013,8 20 0,0
23.09.2018 15:00:00 23,0 16,1 22,9 18,3 18,1 26 14 59 32 WSW 1014,6 20 0,0
23.09.2018 14:00:00 22,1 15,7 22,8 18,2 18,2 29 16 59 32 SW 1015,4 20 0,0
23.09.2018 13:00:00 21,5 15,6 19,2 18,1 18,2 21 11 54 29 WSW 1016,5 20 0,0
23.09.2018 12:00:00 19,7 15,6 17,3 18,1 18,2 23 13 50 27 WSW 1017,2 20 0,2
23.09.2018 11:00:00 18,4 14,5 17,0 18,0 18,2 24 13 53 28 WSW 1018,0 17 0,0
23.09.2018 10:00:00 18,0 14,3 16,2 18,0 18,2 21 12 55 30 WSW 1018,2 20 0,2
23.09.2018 09:00:00 18,6 13,5 16,5 18,1 18,2 26 14 52 28 WSW 1017,8 19 0,0
23.09.2018 08:00:00 18,7 12,9 18,0 18,1 18,2 28 15 48 26 SW 1017,6 20 0,0
23.09.2018 07:00:00 18,4 12,4 17,8 18,2 18,2 23 12 50 27 WSW 1017,8 20 0,0
23.09.2018 06:00:00 18,6 11,2 18,2 18,3 18,2 29 16 58 32 SW 1018,0 20 0,0
23.09.2018 05:00:00 18,8 10,1 15,1 18,4 18,2 26 14 51 28 WSW 1018,4 20 0,0
23.09.2018 04:00:00 19,0 7,4 17,4 18,4 18,2 21 11 42 23 SW 1018,7 20 0,0
23.09.2018 03:00:00 18,0 6,8 14,2 18,5 18,2 13 7 29 16 WSW 1019,4 20 0,0
23.09.2018 02:00:00 14,8 8,1 13,2 18,6 18,2 6 3 11 6 WSW 1020,4 20 0,0
23.09.2018 01:00:00 13,4 9,8 12,1 18,7 18,2 2 1 22 12 SSW 1020,7 20 0,0
23.09.2018 00:00:00 13,9 9,1 12,1 18,8 18,2 8 5 19 10 NNW 1021,2 20 0,0
22.09.2018 23:00:00 15,1 6,6 13,0 18,9 18,2 8 4 14 8 SW 1021,3 20 0,0
22.09.2018 22:00:00 15,6 5,8 15,1 19,0 18,2 6 3 16 9 W 1021,4 20 0,0
22.09.2018 21:00:00 15,8 5,4 15,3 19,1 18,2 8 4 26 14 W 1021,1 20 0,0
22.09.2018 20:00:00 16,2 4,9 15,8 19,1 18,2 11 6 22 12 W 1020,8 20 0,0
22.09.2018 19:00:00 17,0 5,3 16,8 19,1 18,2 8 5 22 12 W 1020,6 20 0,0
22.09.2018 18:00:00 17,7 4,6 19,0 19,0 18,2 9 5 23 13 W 1020,8 20 0,0
22.09.2018 17:00:00 18,9 5,3 21,8 18,8 18,2 11 6 25 13 WSW 1021,2 20 0,0
22.09.2018 16:00:00 18,5 5,0 24,0 18,6 18,2 10 5 25 13 W 1021,9 20 0,0
22.09.2018 15:00:00 17,9 4,8 22,1 18,3 18,2 8 4 23 13 W 1022,3 20 0,0
22.09.2018 14:00:00 17,6 5,5 23,3 18,0 18,2 12 6 24 13 W 1023,1 20 0,0
22.09.2018 13:00:00 16,2 7,4 21,4 17,9 18,2 11 6 20 11 W 1023,9 20 0,0
22.09.2018 12:00:00 14,7 8,9 15,7 17,7 18,2 10 6 19 10 W 1024,6 20 0,0
22.09.2018 11:00:00 12,6 9,1 14,1 17,8 18,2 8 5 16 9 W 1025,6 20 0,0
22.09.2018 10:00:00 11,3 9,7 10,5 17,9 18,2 8 4 14 8 NW 1025,5 20 0,0
22.09.2018 09:00:00 10,2 9,6 8,7 18,0 18,2 5 3 10 6 WNW 1025,6 15 0,0
22.09.2018 08:00:00 9,3 8,7 8,5 18,1 18,2 3 2 10 5 W 1025,4 7 0,0
22.09.2018 07:00:00 9,5 8,9 7,7 18,2 18,2 5 3 10 5 W 1025,3 10 0,0
22.09.2018 06:00:00 9,2 8,6 7,4 18,4 18,2 4 2 16 9 W 1025,4 11 0,0
22.09.2018 05:00:00 9,8 9,0 9,0 18,5 18,2 8 4 18 10 SW 1025,0 13 0,2
22.09.2018 04:00:00 10,3 9,5 9,8 18,7 18,2 8 4 14 8 WSW 1025,3 16 0,0
22.09.2018 03:00:00 9,8 9,0 8,9 18,8 18,2 3 2 14 8 SE 1025,1 20 0,0
22.09.2018 02:00:00 10,2 9,1 9,0 19,0 18,2 9 5 19 11 W 1024,7 20 0,0
22.09.2018 01:00:00 10,1 9,2 9,1 19,2 18,2 10 5 18 10 WSW 1024,4 20 0,0
22.09.2018 00:00:00 10,5 9,3 9,7 19,4 18,2 13 7 24 13 WSW 1023,8 20 0,0
21.09.2018 23:00:00 10,6 9,5 9,9 19,6 18,2 12 6 22 12 WSW 1023,5 20 0,0
21.09.2018 22:00:00 10,7 9,6 9,9 19,8 18,2 11 6 22 12 WSW 1023,1 20 0,0
21.09.2018 21:00:00 11,1 10,2 10,7 19,9 18,2 11 6 28 15 SW 1022,6 20 0,0
21.09.2018 20:00:00 11,3 10,2 10,9 20,0 18,2 15 8 30 16 SW 1021,3 20 0,6
21.09.2018 19:00:00 11,4 10,1 11,0 20,1 18,2 17 9 47 26 WSW 1019,6 10 1,2
21.09.2018 18:00:00 12,5 10,2 11,7 20,1 18,2 21 12 61 33 WNW 1018,4 9 0,4
21.09.2018 17:00:00 16,1 11,9 16,1 20,0 18,2 32 17 70 38 WNW 1015,8 20 0,0
21.09.2018 16:00:00 23,4 10,8 24,8 19,9 18,2 28 15 60 33 WSW 1012,7 20 0,0
21.09.2018 15:00:00 23,9 10,6 23,6 19,8 18,2 23 12 56 30 WSW 1012,5 20 0,0
21.09.2018 14:00:00 23,0 12,9 23,8 19,7 18,2 31 17 59 32 W 1013,0 20 0,0
21.09.2018 13:00:00 24,4 12,4 24,8 19,6 18,2 24 13 54 29 WSW 1012,4 20 0,0
21.09.2018 12:00:00 24,2 13,1 25,6 19,5 18,2 24 13 49 27 WSW 1012,6 20 0,0
21.09.2018 11:00:00 24,2 12,8 24,0 19,5 18,2 20 11 40 22 W 1012,8 20 0,0
21.09.2018 10:00:00 22,7 12,6 18,4 19,6 18,2 16 9 29 16 WSW 1012,7 20 0,0
21.09.2018 09:00:00 19,5 12,3 15,1 19,7 18,2 10 6 21 11 WSW 1013,0 20 0,0
21.09.2018 08:00:00 15,4 13,1 12,3 19,8 18,2 4 2 9 5 SSW 1013,5 20 0,0
21.09.2018 07:00:00 14,4 12,8 12,5 20,0 18,2 1 1 7 4 WSW 1013,6 18 0,0
21.09.2018 06:00:00 14,8 13,2 13,2 20,1 18,2 1 0 6 3 W 1013,7 20 0,0
21.09.2018 05:00:00 15,5 13,3 13,6 20,3 18,2 3 1 5 3 NW 1014,1 20 0,0
21.09.2018 04:00:00 15,9 13,4 13,1 20,5 18,2 4 2 10 6 WNW 1014,4 20 0,0
21.09.2018 03:00:00 16,1 13,4 13,8 20,7 18,2 5 3 7 4 NNW 1014,7 20 0,0
21.09.2018 02:00:00 16,4 13,1 14,6 20,8 18,2 4 2 7 4 NW 1015,0 20 0,0
21.09.2018 01:00:00 18,4 13,7 16,1 21,0 18,2 3 2 6 3 WNW 1015,1 20 0,0
21.09.2018 00:00:00 18,6 13,7 16,2 21,2 18,2 3 1 5 3 WNW 1015,5 20 0,0
20.09.2018 23:00:00 19,4 13,3 17,1 21,3 18,2 1 1 7 4 E 1015,9 20 0,0
20.09.2018 22:00:00 19,8 13,3 17,3 21,4 18,2 3 1 9 5 SW 1016,1 20 0,0
20.09.2018 21:00:00 22,5 13,0 19,8 21,5 18,2 6 3 13 7 WNW 1015,8 20 0,0
20.09.2018 20:00:00 24,0 12,6 21,6 21,5 18,2 8 4 13 7 W 1015,5 20 0,0
20.09.2018 19:00:00 26,7 12,7 26,6 21,4 18,2 8 4 18 10 NW 1015,1 20 0,0
20.09.2018 18:00:00 28,2 12,5 31,2 21,2 18,2 9 5 21 11 WNW 1015,1 20 0,0
20.09.2018 17:00:00 28,7 12,6 33,3 20,9 18,2 10 6 24 13 WSW 1015,5 20 0,0
20.09.2018 16:00:00 28,3 12,6 34,6 20,5 18,1 8 5 22 12 SW 1016,3 20 0,0
20.09.2018 15:00:00 27,4 13,0 34,6 20,1 18,2 10 5 24 13 W 1017,2 20 0,0
20.09.2018 14:00:00 27,2 13,5 32,9 19,8 18,2 13 7 29 16 NW 1018,0 20 0,0
20.09.2018 13:00:00 26,8 13,9 32,0 19,5 18,2 7 4 23 12 WNW 1018,8 20 0,0
20.09.2018 12:00:00 25,5 13,7 30,1 19,3 18,2 9 5 19 10 W 1019,6 20 0,0
20.09.2018 11:00:00 24,5 14,3 25,5 19,2 18,1 4 2 12 7 WNW 1019,9 20 0,0
20.09.2018 10:00:00 22,5 14,3 20,6 19,3 18,1 3 2 8 5 SW 1020,3 20 0,0
20.09.2018 09:00:00 19,9 14,5 14,6 19,5 18,1 1 1 5 3 SSE 1020,7 20 0,0
20.09.2018 08:00:00 15,5 12,8 12,2 19,6 18,1 3 2 9 5 WSW 1021,4 20 0,0
20.09.2018 07:00:00 14,7 12,6 12,9 19,7 18,1 3 2 6 3 SSE 1021,2 20 0,0
20.09.2018 06:00:00 15,1 12,8 12,6 19,9 18,2 3 2 6 4 SW 1020,9 20 0,0
20.09.2018 05:00:00 16,0 12,7 13,9 20,0 18,2 1 1 11 6 WNW 1020,7 20 0,0

tt = temperature
td = dewpoint
tt 5cm = temperature 5cm
tt -20cm = temperature -20cm
tt -100cm = temperature -100cm
ff = wind speed
fx = gusts
dd = wind direction
ppp = reduced air pressure
vv = visibility
rr = precipitation

Next stations